DELTA 1 DEB, 42580

Orbit data source: Space-Track

DELTA 1 DEB, 42580 is space debris in SSO originally from a launch on Tue, 06 Nov 1973 UTC launched from the Air Force Western Test Range (AFWTR). Debris objects in space refer to the collection of defunct objects orbiting the Earth. Examples of debris include non-operational satellites, rocket bodies, and fragments generated from explosions, collisions, or faulty payload assembly.

Loading next visibility...
Identifier
42580, 1973-086HU
Orbit
SSO
Country
Flag of USUS
Related business
Manufacturer
Unknown
Mission
Spacecraft
Bus & Motor
Unknown
Mass
Unknown
Launch date (UTC)
1973-11-06 (52 years ago)
Launch vehicle
Unknown
Launch site
Air Force Western Test Range (AFWTR)
Object type
Payload
Rocket body
Debris
Shape & HBR
Unknown shape, 0.1 m
Radar Cross Section
Small (<0.1 m²)

Expand to show TLE details & history
Last TLE update: 5 hours ago

TLE from 5 hours ago
0 DELTA 1 DEB
1 42580U 73086HU  25298.18234073  .00087988  00000-0  21836-1 0  9998
2 42580 101.4307 286.2650 0019777 298.2813  61.6375 14.51147230600956
Epoch: 2025-10-25T04:22Z
TLE epoch observation values (Epoch: 2025-10-25T04:22:34.239Z)
Latitude
0.00003°
Longitude
-173.19423°
Altitude
718.109 km
Speed
7.5 km/s
True Right ascension
19h 05m 03s
True Declination
0° 00' 00"
Sunlit
Object was in daylight at epoch
Visualization orbit readout
Latitude
Unknown
Longitude
Unknown
Altitude
Unknown
Speed
Unknown
Apparent Right ascension
Unknown
Apparent Declination
Unknown
Sunlit
N/A
Visualization observer readout
Local Sidereal Time
04:52:48
Azimuth
Unknown
Elevation
Unknown
Doppler factor
Unknown
Orbital elements
Apogee altitude
733.209 km
Perigee altitude
705.137 km
Semi-major axis
7,097.31 km
Eccentricity
0.00198
Inclination
101.4307°
RAAN
286.265°
Arg. of periapsis
298.2813°
True anomaly
61.83716°
Mean anomaly
61.6375°
Eccentric anomaly
61.73731°
Mean motion
3.62997 °/min
Orbital period
99.17 mins
BSTAR
0.021836
Loading maneuver chart data...
Computing Atmospheric mass density...
Loading historical data...
Loading historical data...
Loading historical data...
Loading historical data...
Loading historical data...
Loading historical data...
Loading historical data...

Documentation

Showing up to 5 results
|